Weather History for Morrisville, VT

Change the Weather History Date:

Tuesday, February 11, 2014

  Actual Average Record
Temperature  
Mean Temperature 2 °F 18 °F  
Max Temperature 14 °F 30 °F 53 °F (2009)
Min Temperature -10 °F 6 °F -10 °F (2014)
Degree Days  
Heating Degree Days 63 48  
Month to date heating degree days 553 534  
Since 1 July heating degree days 5248 5196  
Cooling Degree Days 0 0  
Month to date cooling degree days 0 0  
Year to date cooling degree days 0 0  
Moisture  
Dew Point -3 °F    
Average Humidity 70    
Maximum Humidity 88    
Minimum Humidity 51    
Precipitation  
Precipitation T in 0.07 in 0.17 in (2009)
Month to date precipitation 0.74 0.67  
Year to date precipitation 3.15 3.21  
Sea Level Pressure  
Sea Level Pressure 30.32 in    
Wind  
Wind Speed 4 mph (NNW)    
Max Wind Speed 16 mph    
Max Gust Speed 21 mph    
Visibility 8 miles    
Events Snow    
T = Trace of Precipitation, MM = Missing Value Source: NWS Daily Summary

Daily Weather History Graph

Daily Weather History Graph

Search for Another Location

Airport:

Trip Planner

Search our weather history database for the weather conditions in past years. The results will help you decide how hot, cold, wet, or windy it might be!

Date:

Astronomy

Feb. 11, 2014 Rise Set
Actual Time 6:56 AM EST 5:13 PM EST
Civil Twilight 6:26 AM EST 5:43 PM EST
Nautical Twilight 5:51 AM EST 6:18 PM EST
Astronomical Twilight 5:18 AM EST 6:51 PM EST
Moon 2:28 PM EST (2/11) 4:34 AM EST (2/11)
Length of Visible Light 11h 17m
Length of Day
10h 17m
Waxing Gibbous, 90% of the Moon is Illuminated
Feb 11
Waxing Gibbous
Feb 14
Full
Feb 22
Last Quarter
Mar 1
New
Mar 8
First Quarter

Hourly Weather History & Observations

Time (EST) Temp. Windchill Dew Point Humidity Pressure Visibility Wind Dir Wind Speed Gust Speed Precip Events Conditions
12:54 AM 7.0 °F - 3.0 °F 84% 30.22 in 6.0 mi Calm Calm - N/A   Overcast
1:09 AM 7.0 °F - 3.0 °F 84% 30.16 in 6.0 mi Calm Calm - N/A   Overcast
1:22 AM 5.0 °F - 1.0 °F 84% 30.16 in 7.0 mi Calm Calm - N/A   Overcast
1:54 AM 3.9 °F - -0.0 °F 84% 30.22 in 7.0 mi Calm Calm - N/A   Overcast
2:35 AM 1.9 °F - -2.0 °F 83% 30.17 in 8.0 mi Calm Calm - N/A   Overcast
2:54 AM 3.9 °F - -0.9 °F 80% 30.22 in 8.0 mi Calm Calm - N/A   Overcast
3:18 AM 1.9 °F - -0.9 °F 88% 30.17 in 3.0 mi Calm Calm - 0.00 in Snow Light Snow
3:46 AM 5.0 °F -2.1 °F 1.0 °F 84% 30.18 in 2.5 mi South 3.5 mph - 0.00 in Snow Light Snow
3:54 AM 5.0 °F -2.1 °F 1.0 °F 84% 30.23 in 3.0 mi SSW 3.5 mph - 0.00 in Snow Light Snow
4:36 AM 5.0 °F - -0.0 °F 80% 30.19 in 2.0 mi Calm Calm - 0.00 in Snow Light Snow
4:54 AM 6.1 °F - 1.0 °F 80% 30.25 in 3.0 mi Calm Calm - 0.00 in   Haze
5:15 AM 6.1 °F - 1.0 °F 80% 30.20 in 2.5 mi Calm Calm - 0.00 in Snow Light Snow
5:54 AM 6.1 °F - 1.9 °F 83% 30.27 in 5.0 mi Calm Calm - 0.00 in   Overcast
6:37 AM 3.0 °F -4.4 °F -2.0 °F 80% 30.22 in 10.0 mi Variable 3.5 mph - N/A   Scattered Clouds
6:54 AM 3.0 °F - -2.9 °F 76% 30.29 in 10.0 mi Calm Calm - N/A   Clear
7:54 AM 3.9 °F - -0.0 °F 84% 30.30 in 8.0 mi Calm Calm - N/A   Partly Cloudy
8:54 AM 8.1 °F 1.4 °F 1.0 °F 73% 30.31 in 10.0 mi NE 3.5 mph - N/A   Clear
9:54 AM 12.0 °F 4.1 °F -2.0 °F 53% 30.32 in 10.0 mi Variable 4.6 mph - N/A   Mostly Cloudy
10:54 AM 10.9 °F -3.4 °F -0.9 °F 59% 30.34 in 10.0 mi NNW 11.5 mph - N/A   Overcast
11:54 AM 12.9 °F 0.7 °F -0.9 °F 54% 30.34 in 10.0 mi North 9.2 mph - N/A   Overcast
12:54 PM 14.0 °F 2.0 °F -2.9 °F 47% 30.33 in 10.0 mi NW 9.2 mph 18.4 mph N/A   Mostly Cloudy
1:54 PM 12.9 °F -1.6 °F -0.9 °F 54% 30.33 in 10.0 mi WNW 12.7 mph 20.7 mph N/A   Overcast
2:54 PM 12.0 °F 0.5 °F -2.0 °F 53% 30.35 in 10.0 mi NNW 8.1 mph - N/A   Overcast
3:54 PM 12.0 °F 1.5 °F -2.9 °F 51% 30.37 in 10.0 mi NW 6.9 mph - N/A   Scattered Clouds
4:54 PM 9.0 °F -3.2 °F -5.1 °F 53% 30.40 in 10.0 mi NNW 8.1 mph - N/A   Mostly Cloudy
5:54 PM 7.0 °F -9.1 °F -6.0 °F 55% 30.43 in 10.0 mi NNW 12.7 mph - N/A   Mostly Cloudy
6:54 PM 6.1 °F -4.3 °F -5.1 °F 60% 30.46 in 10.0 mi North 5.8 mph - N/A   Overcast
7:54 PM 5.0 °F -5.6 °F -6.0 °F 61% 30.48 in 10.0 mi North 5.8 mph - N/A   Overcast
8:25 PM 1.9 °F - -7.1 °F 66% 30.42 in 9.0 mi Calm Calm - N/A   Mostly Cloudy
8:33 PM 1.9 °F - -7.1 °F 66% 30.42 in 10.0 mi Calm Calm - N/A   Scattered Clouds
8:54 PM -0.0 °F - -9.0 °F 66% 30.49 in 10.0 mi Calm Calm - N/A   Clear
9:54 PM -4.0 °F - -9.9 °F 76% 30.51 in 10.0 mi Calm Calm - N/A   Clear
10:54 PM -9.0 °F -18.2 °F -13.0 °F 83% 30.53 in 10.0 mi ESE 3.5 mph - N/A   Clear
11:54 PM -9.0 °F - -14.1 °F 79% 30.53 in 10.0 mi Calm Calm - N/A   Clear